Weather History for Pompano Beach, FL

Change the Weather History Date:

Monday, September 19, 2011

  Actual Average Record
Temperature  
Mean Temperature 85 °F -  
Max Temperature 90 °F 90 °F 95 °F (1987)
Min Temperature 81 °F 74 °F 68 °F (1954)
Cooling Degree Days 20    
Growing Degree Days 35 (Base 50)    
Moisture  
Dew Point 74 °F    
Average Humidity 71    
Maximum Humidity 84    
Minimum Humidity 61    
Precipitation  
Precipitation 0.19 in - - ()
Sea Level Pressure  
Sea Level Pressure 29.98 in    
Wind  
Wind Speed 9 mph (East)    
Max Wind Speed 15 mph    
Max Gust Speed 28 mph    
Visibility 10 miles    
Events Rain    
Averages and records for this station are not official NWS values.
T = Trace of Precipitation, MM = Missing Value Source: NWS Daily Summary

Daily Weather History Graph

Daily Weather History Graph

Search for Another Location

Airport:

Trip Planner

Search our weather history database for the weather conditions in past years. The results will help you decide how hot, cold, wet, or windy it might be!

Date:

Astronomy

Sep. 19, 2011 Rise Set
Actual Time 7:07 AM EDT 7:20 PM EDT
Civil Twilight 6:44 AM EDT 7:43 PM EDT
Nautical Twilight 6:17 AM EDT 8:10 PM EDT
Astronomical Twilight 5:50 AM EDT 8:37 PM EDT
Moon No Moon Rise 1:17 PM EDT (9/19)
Length of Visible Light 12h 59m
Length of Day
12h 12m
Waning Gibbous, 59% of the Moon is Illuminated
Sep 19
Waning Gibbous
Sep 20
Last Quarter
Sep 27
New
Oct 3
First Quarter
Oct 11
Full

Hourly Weather History & Observations

Time (EDT) Temp. Heat Index Dew Point Humidity Pressure Visibility Wind Dir Wind Speed Gust Speed Precip Events Conditions
1:53 AM 82.9 °F 88.8 °F 73.0 °F 72% 29.99 in 10.0 mi East 8.1 mph - N/A   Partly Cloudy
4:53 AM 82.0 °F 87.4 °F 73.0 °F 74% 29.96 in 10.0 mi East 9.2 mph - N/A   Partly Cloudy
5:53 AM 82.0 °F 87.9 °F 73.9 °F 76% 29.98 in 10.0 mi ESE 3.5 mph - N/A   Clear
6:53 AM 81.0 °F 85.8 °F 73.0 °F 77% 29.99 in 10.0 mi SE 4.6 mph - N/A   Mostly Cloudy
7:53 AM 82.9 °F 89.4 °F 73.9 °F 74% 30.00 in 10.0 mi ESE 6.9 mph - N/A   Scattered Clouds
9:53 AM 86.0 °F 93.0 °F 73.0 °F 65% 30.01 in 10.0 mi ESE 6.9 mph - N/A   Partly Cloudy
10:53 AM 87.1 °F 95.4 °F 73.9 °F 65% 30.02 in 10.0 mi East 9.2 mph - N/A   Scattered Clouds
11:53 AM 87.1 °F 94.5 °F 73.0 °F 63% 30.02 in 10.0 mi ESE 13.8 mph 23.0 mph N/A   Scattered Clouds
12:53 PM 86.0 °F 92.2 °F 72.0 °F 63% 30.01 in 10.0 mi East 9.2 mph - 0.00 in Rain Light Rain
1:53 PM 88.0 °F 96.5 °F 73.9 °F 63% 29.99 in 10.0 mi East 9.2 mph - 0.00 in   Scattered Clouds
2:53 PM 89.1 °F 98.0 °F 73.9 °F 61% 29.96 in 10.0 mi East 9.2 mph - N/A   Scattered Clouds
3:53 PM 88.0 °F 97.5 °F 75.0 °F 65% 29.94 in 10.0 mi East 12.7 mph - N/A   Scattered Clouds
4:53 PM 87.1 °F 95.4 °F 73.9 °F 65% 29.93 in 10.0 mi East 9.2 mph - N/A   Partly Cloudy
5:53 PM 86.0 °F 95.1 °F 75.0 °F 70% 29.94 in 10.0 mi East 10.4 mph - N/A   Scattered Clouds
6:53 PM 84.9 °F 93.3 °F 75.0 °F 72% 29.94 in 10.0 mi East 10.4 mph - N/A   Mostly Cloudy
7:53 PM 81.0 °F 86.7 °F 75.0 °F 82% 29.96 in 4.0 mi SE 15.0 mph 27.6 mph 0.15 in Rain Heavy Rain
8:07 PM 82.4 °F 90.9 °F 77.0 °F 84% 29.95 in 10.0 mi East 4.6 mph - 0.04 in Rain Light Rain
8:53 PM 82.9 °F 90.8 °F 75.9 °F 79% 29.97 in 10.0 mi East 11.5 mph - 0.04 in   Mostly Cloudy
9:53 PM 84.0 °F 91.9 °F 75.0 °F 74% 29.99 in 10.0 mi East 10.4 mph - N/A   Partly Cloudy
10:53 PM 82.9 °F 89.4 °F 73.9 °F 74% 29.99 in 10.0 mi ESE 10.4 mph - N/A   Clear
11:53 PM 82.9 °F 90.2 °F 75.0 °F 77% 29.99 in 10.0 mi East 10.4 mph - N/A   Partly Cloudy